Regional Weather Roundup
Issued by NWS

Home | Current Version | Previous Version | Text Only | Print | Product List | Glossary Off
Versions: 1 2 3 4 5 6 7 8 9 10 11 12 13 14 15 16 17 18 19 20 21 22 23 24 25 26 27 28 29 30 31 32 33 34 35 36 37 38 39 40 41 42 43 44 45 46 47 48 49 50

000
ASUS45 KBOU 241107
RWRCO

WEATHER ROUNDUP FOR COLORADO
NATIONAL WEATHER SERVICE DENVER/BOULDER CO
500 AM MDT THU JUL 24 2014

NOTE: "FAIR" INDICATES FEW OR NO CLOUDS BELOW 12000 FEET WITH NO
SIGNIFICANT WEATHER AND/OR OBSTRUCTIONS TO VISIBILITY.

COZ001>005-013-030-031-241200-
...NORTHWEST COLORADO...

CITY           SKY/WX    TMP DP  RH WIND       PRES   REMARKS
CRAIG          MOCLDY    54  50  86 CALM      30.25F
HAYDEN         MOCLDY    63  43  48 E12       30.29S
MEEKER         PTCLDY    60  43  53 NE9       30.28S
MOUNT WERNER   NOT AVBL
STEAMBOAT SPGS MOCLDY    57  44  62 CALM      30.33R
WALDEN         CLOUDY    54  37  54 S7        30.41R
$$

COZ006>008-011-241200-
...WEST CENTRAL VALLEYS...

CITY           SKY/WX    TMP DP  RH WIND       PRES   REMARKS
GRAND JUNCTION PTCLDY    82  48  30 SE16      30.15R
MONTROSE       MOCLDY    71  51  49 SE9       30.29R
EAGLE          MOCLDY    61  48  63 E6        30.37R
RIFLE          PTCLDY    67  45  45 CALM      30.23S
DELTA          MOCLDY    76  53  44 NE10      30.25R
NUCLA          MOCLDY    75  45  33 SE5       30.33R
$$

COZ017>023-064>068-241200-
...SOUTHWEST COLORADO...

CITY           SKY/WX    TMP DP  RH WIND       PRES   REMARKS
DURANGO        PTCLDY    62  51  67 CALM      30.41R
CORTEZ         CLEAR     74  49  41 VRB7G16   30.30R
PAGOSA SPRINGS PTCLDY    58  54  86 NW3       30.49S
TELLURIDE      NOT AVBL
WOLF CREEK PAS NOT AVBL
$$

COZ009-010-012-014-032>034-037-058>063-241200-
...CENTRAL COLORADO...

CITY           SKY/WX    TMP DP  RH WIND       PRES   REMARKS
ASPEN          CLOUDY    65  46  50 S6        30.43R
BUENA VISTA    MOCLDY    56  45  66 CALM      30.46S
COPPER MTN     CLOUDY    55  36  47 S15       30.76S
BERTHOUD PASS  FAIR      46  32  57 W8G20     30.80R
COTTONWOOD PAS MOCLDY    63  39  42 W5        30.59S
GUNNISON       CLOUDY    61  45  55 CALM      30.49R
KREMMLING      PTCLDY    52  41  66 CALM      30.42R
LEADVILLE      CLOUDY    48  44  86 CALM      30.60R
MONARCH PASS   MOCLDY    50  41  71 W23       30.86S
SALIDA         MOCLDY   N/A N/A N/A NW5       30.49S
SUNLIGHT       MOCLDY    55  45  67 CALM      30.66R
WILKERSON PASS PTCLDY    50  41  71 SW12G17   30.70R
$$

COZ069>075-241200-
...SAN LUIS VALLEY/SANGRE DE CRISTO MOUNTAINS...

CITY           SKY/WX    TMP DP  RH WIND       PRES   REMARKS
ALAMOSA        CLEAR     54  49  83 SE7       30.45S
LA VETA PASS   CLEAR     54  45  71 SW15G25   30.61F
SAGUACHE       MOCLDY    55  45  67 NW6       30.49R
$$

COZ035-036-038>040-241200-
...NORTHERN COLORADO FRONT RANGE...

CITY           SKY/WX    TMP DP  RH WIND       PRES   REMARKS
DENVER INTL AP PTCLDY    73  47  39 W9        30.15R
DMNS CITY PARK   N/A     67  49  53 W1        30.14S
AURORA         PTCLDY    69  49  49 S12       30.18S
FRONT RANGE AP NOT AVBL
ERIE MUNI ARPT CLEAR     59  51  75 S3        30.13S
BOULDER MUN AP CLEAR     64  50  59 SW3       30.13S
CENTENNIAL     PTCLDY    74  45  35 S8        30.19S
BROOMFIELD     CLEAR     64  50  59 CALM      30.17S
FORT COLLINS   MOCLDY    64  54  68 NE5       30.13R
LONGMONT       MOCLDY    64  51  62 S3        30.13S
$$

COZ041-046-047-076>085-087-088-241200-
...PIKES PEAK/PALMER DIVIDE AND SOUTHERN FOOTHILLS...

CITY           SKY/WX    TMP DP  RH WIND       PRES   REMARKS
COLO. SPRINGS  PTCLDY    64  56  75 NE5       30.27S
A. F. ACADEMY  CLEAR     61  51  69 E6        30.28F
ELLICOTT       CLEAR     62  49  62 S5        30.25S
FALCON         CLEAR     59  54  84 W3        30.32S
FORT CARSON    CLEAR     63  51  64 NW2       30.24S
LIMON          PTCLDY    57  55  93 E3        30.20S
MONUMENT HILL  PTCLDY    61  45  55 SW8       30.31S
TRINIDAD       CLEAR     69  50  50 SW13      30.27R
$$

COZ042>045-048>051-090-091-241200-
...NORTHEAST COLORADO...

CITY           SKY/WX    TMP DP  RH WIND       PRES   REMARKS
GREELEY ARPT   PTCLDY    59  48  67 CALM      30.10F
AKRON          PTCLDY    68  59  73 S13G25    30.11S
BURLINGTON     CLEAR     68  64  87 S12       30.13S
WRAY             N/A     72  67  85 CALM      30.08F
STERLING       PTCLDY    70  68  94 S7        30.06S
HOLYOKE        CLEAR     66  63  88 S5        30.07F
FORT MORGAN    PTCLDY    65  61  86 W3        30.11R
$$

COZ086-089-092>099-241200-
...SOUTHEAST COLORADO...

CITY           SKY/WX    TMP DP  RH WIND       PRES   REMARKS
PUEBLO         PTCLDY    67  53  61 CALM      30.16R
LA JUNTA       CLEAR     72  51  47 S14       30.14R
LAMAR          CLEAR     67  55  65 N3        30.10S
SPRINGFIELD      N/A     65  55  70 SW8       30.18F
$$


USA.gov is the U.S. government's official web portal to all federal, state and local government web resources and services.